Total_Precipitation_Accumulation
2.13 2.13 2.12 2.15 2.06 2.15 2.18 2.11 1.85 1.67 1.53 1.35 1.18 1.21 1.32 1.31 1.41 1.51 1.78 1.86 1.72 1.88 2.27 2.59 2.62 2.63 2.60 2.51 2.39 2.32 2.25 2.21 2.06 1.84 1.56 1.38 1.31 1.19 1.16 1.15 1.18 1.16 1.11
2.50 2.50 2.60 2.58 2.34 2.33 2.41 2.47 2.32 2.09 1.81 1.60 1.43 1.38 1.38 1.37 1.47 1.63 1.83 1.97 1.90 1.82 2.15 2.59 2.80 2.93 2.93 2.92 2.80 2.55 2.36 2.26 2.20 2.05 1.86 1.63 1.47 1.35 1.28 1.23 1.20 1.17 1.13
2.80 2.79 2.95 2.93 2.62 2.53 2.64 2.74 2.71 2.56 2.17 1.88 1.76 1.72 1.64 1.65 1.63 1.71 1.89 2.01 2.00 1.95 2.07 2.21 2.41 2.60 2.76 2.90 2.96 2.82 2.61 2.38 2.24 2.15 2.11 2.00 1.80 1.59 1.44 1.37 1.34 1.27 1.18
2.86 2.95 2.89 2.74 2.66 2.71 2.94 3.14 3.08 2.99 2.72 2.45 2.24 1.98 1.79 1.77 1.72 1.86 1.92 1.97 2.24 2.18 2.11 1.93 2.00 2.20 2.47 2.80 3.06 3.09 2.98 2.77 2.48 2.29 2.23 2.15 1.98 1.75 1.55 1.45 1.43 1.36 1.29
2.98 3.13 3.15 3.10 3.04 3.05 3.12 3.04 3.19 3.03 3.06 2.87 2.41 2.16 1.94 1.87 1.92 1.97 2.01 2.02 2.14 2.26 2.22 2.01 1.93 2.03 2.17 2.49 2.76 3.04 3.16 3.08 2.83 2.57 2.41 2.30 2.14 1.96 1.78 1.65 1.55 1.47 1.38
3.28 3.39 3.36 3.42 3.48 3.53 3.36 3.27 3.26 3.07 2.91 2.82 2.48 2.27 2.11 1.96 1.92 1.90 1.84 1.87 1.97 1.94 2.02 2.02 2.06 1.94 2.01 2.14 2.37 2.76 3.16 3.28 3.22 2.99 2.79 2.65 2.40 2.13 1.92 1.81 1.71 1.64 1.55
3.86 3.87 3.90 3.89 3.77 3.68 3.52 3.33 3.19 3.07 2.85 2.65 2.58 2.28 1.93 1.69 1.62 1.58 1.63 1.70 1.70 1.70 1.79 1.96 2.06 2.02 1.89 1.85 2.00 2.45 3.02 3.32 3.33 3.22 3.07 2.96 2.66 2.30 2.07 1.92 1.81 1.71 1.65
4.55 4.34 4.29 4.10 3.80 3.61 3.47 3.28 3.13 2.97 2.71 2.55 2.50 2.48 2.09 1.78 1.49 1.32 1.41 1.43 1.49 1.63 1.72 1.69 1.73 1.74 1.70 1.71 1.66 1.91 2.19 2.47 2.75 2.98 3.08 3.00 2.81 2.55 2.30 2.16 2.10 2.02 1.92
4.62 4.32 4.03 3.87 3.69 3.52 3.35 3.27 3.15 3.02 2.77 2.58 2.47 2.60 2.47 2.15 1.76 1.56 1.42 1.43 1.51 1.57 1.57 1.54 1.50 1.49 1.54 1.62 1.64 1.70 1.84 2.00 2.24 2.51 2.73 2.78 2.71 2.57 2.43 2.35 2.34 2.35 2.34
4.27 3.85 3.61 3.61 3.45 3.24 3.05 2.84 2.71 2.67 2.60 2.50 2.44 2.33 2.30 2.23 2.07 1.86 1.65 1.65 1.67 1.64 1.58 1.54 1.59 1.65 1.65 1.72 1.71 1.58 1.54 1.58 1.80 2.01 2.25 2.38 2.37 2.36 2.38 2.46 2.58 2.70 2.71
3.69 3.42 3.22 3.23 3.13 2.88 2.66 2.41 2.22 2.14 2.14 2.21 2.23 2.20 2.14 2.08 1.91 1.81 1.73 1.65 1.62 1.61 1.54 1.51 1.56 1.64 1.64 1.58 1.54 1.52 1.52 1.48 1.59 1.73 1.87 2.09 2.22 2.27 2.34 2.45 2.55 2.64 2.73
3.11 2.81 2.54 2.43 2.31 2.16 2.05 1.95 1.84 1.78 1.78 1.89 1.96 1.91 1.90 1.91 1.87 1.86 1.80 1.66 1.64 1.71 1.58 1.46 1.40 1.37 1.38 1.43 1.45 1.59 1.51 1.49 1.54 1.58 1.55 1.58 1.75 1.95 2.13 2.25 2.31 2.43 2.60
2.47 2.19 1.99 1.87 1.81 1.76 1.71 1.69 1.65 1.59 1.50 1.54 1.57 1.61 1.62 1.59 1.63 1.75 1.88 1.87 1.78 1.66 1.57 1.49 1.35 1.30 1.29 1.31 1.46 1.58 1.44 1.40 1.46 1.47 1.38 1.33 1.37 1.50 1.59 1.73 1.90 2.05 2.22
1.94 1.83 1.68 1.57 1.52 1.55 1.55 1.57 1.51 1.40 1.31 1.28 1.24 1.27 1.32 1.32 1.45 1.64 1.76 1.93 1.96 1.75 1.50 1.42 1.34 1.26 1.27 1.29 1.47 1.50 1.32 1.26 1.25 1.31 1.31 1.24 1.20 1.22 1.25 1.31 1.40 1.48 1.63
1.49 1.47 1.44 1.40 1.32 1.26 1.22 1.18 1.15 1.15 1.17 1.17 1.11 1.09 1.11 1.14 1.25 1.39 1.51 1.72 1.91 1.84 1.57 1.34 1.32 1.30 1.24 1.32 1.54 1.31 1.21 1.22 1.11 1.04 1.06 1.05 1.07 1.09 1.09 1.04 1.06 1.11 1.18
1.15 1.16 1.13 1.10 1.11 1.12 1.04 0.96 0.92 0.95 0.98 1.03 1.05 1.00 0.98 0.99 1.03 1.09 1.19 1.34 1.55 1.69 1.61 1.32 1.21 1.14 1.12 1.11 1.35 1.19 1.21 1.22 1.03 0.90 0.85 0.86 0.89 0.94 0.94 0.90 0.91 0.94 1.00
0.98 0.94 0.94 0.92 0.90 0.89 0.88 0.90 0.87 0.88 0.94 0.95 0.95 0.93 0.91 0.91 0.97 0.96 1.01 1.12 1.26 1.42 1.56 1.44 1.24 1.12 1.08 1.12 1.18 1.09 1.06 1.00 0.93 0.91 0.79 0.74 0.76 0.82 0.82 0.80 0.84 0.86 0.89
0.87 0.85 0.86 0.82 0.75 0.72 0.77 0.83 0.86 0.85 0.94 0.94 0.92 0.92 0.88 0.88 0.93 0.93 0.95 1.01 1.14 1.31 1.46 1.52 1.35 1.21 1.11 1.06 1.08 1.04 0.88 0.83 0.85 0.96 0.83 0.74 0.69 0.69 0.77 0.73 0.72 0.77 0.83
0.83 0.81 0.75 0.73 0.72 0.68 0.69 0.70 0.72 0.74 0.80 0.86 0.87 0.92 0.93 0.93 0.91 0.90 0.93 1.00 1.12 1.25 1.40 1.45 1.37 1.27 1.21 1.13 1.16 1.08 0.96 1.03 0.90 0.91 0.85 0.78 0.72 0.70 0.92 0.94 0.72 0.68 0.73
0.74 0.72 0.65 0.63 0.69 0.68 0.62 0.59 0.60 0.65 0.70 0.71 0.72 0.85 0.91 0.92 0.92 0.98 1.00 1.04 1.11 1.27 1.36 1.40 1.33 1.25 1.21 1.21 1.26 1.27 1.21 1.16 1.06 0.85 0.87 0.83 0.80 0.82 1.14 1.63 1.11 0.79 0.75
0.71 0.71 0.65 0.60 0.63 0.63 0.57 0.57 0.57 0.57 0.61 0.61 0.63 0.71 0.78 0.80 0.81 0.87 0.89 0.98 1.11 1.26 1.33 1.38 1.33 1.27 1.20 1.28 1.32 1.27 1.22 1.23 1.11 0.98 0.96 0.89 1.04 1.33 1.85 2.46 1.97 1.32 1.06
0.79 0.75 0.69 0.64 0.62 0.59 0.60 0.54 0.52 0.53 0.57 0.63 0.70 0.72 0.68 0.68 0.66 0.64 0.71 0.81 0.97 1.17 1.33 1.39 1.35 1.32 1.25 1.28 1.37 1.36 1.33 1.35 1.34 1.08 0.99 1.00 1.23 1.96 2.63 2.96 2.50 1.68 1.33
0.90 0.80 0.70 0.66 0.63 0.56 0.51 0.42 0.41 0.46 0.58 0.68 0.76 0.74 0.64 0.61 0.70 0.71 0.71 0.74 0.85 0.99 1.20 1.41 1.46 1.34 1.30 1.31 1.44 1.50 1.43 1.42 1.40 1.19 1.18 1.24 1.46 2.23 2.51 2.69 2.49 1.75 1.44
0.84 0.78 0.70 0.64 0.60 0.46 0.39 0.37 0.40 0.42 0.50 0.54 0.58 0.66 0.76 0.78 0.71 0.72 0.71 0.81 0.90 1.00 1.09 1.21 1.38 1.31 1.24 1.30 1.39 1.43 1.38 1.33 1.25 1.15 1.18 1.36 1.58 2.10 2.12 2.23 2.28 1.79 1.49
0.79 0.72 0.66 0.63 0.59 0.47 0.40 0.38 0.39 0.44 0.48 0.45 0.42 0.48 0.55 0.59 0.59 0.67 0.77 0.92 0.98 1.09 1.11 1.27 1.29 1.23 1.22 1.23 1.17 1.21 1.40 1.50 1.40 1.15 1.06 1.24 1.47 1.76 1.80 1.88 1.84 1.70 1.54
0.74 0.62 0.55 0.55 0.52 0.50 0.42 0.35 0.35 0.38 0.45 0.43 0.45 0.52 0.52 0.46 0.49 0.62 0.80 0.99 1.13 1.18 1.27 1.45 1.43 1.40 1.29 1.22 1.12 1.15 1.42 1.61 1.56 1.31 1.05 1.12 1.27 1.42 1.64 1.62 1.51 1.43 1.50